Time,TemperatureF,DewpointF,PressureIn,WindDirection,WindDirectionDegrees,WindSpeedMPH,WindSpeedGustMPH,Humidity,HourlyPrecipIn,Conditions,Clouds,dailyrainin,SoftwareType,DateUTC
2013-03-11 00:04:00,35.3,27.5,30.38,WNW,288,1.0,2.5,73,0.00,,,0.00,WUHU216HW,2013-03-11 04:04:00,
2013-03-11 00:19:00,34.9,27.1,30.38,West,269,1.1,2.2,73,0.00,,,0.00,WUHU216HW,2013-03-11 04:19:00,
2013-03-11 00:34:00,34.7,27.2,30.38,WNW,285,1.5,3.4,74,0.00,,,0.00,WUHU216HW,2013-03-11 04:34:00,
2013-03-11 00:49:00,34.6,27.4,30.37,WNW,301,1.4,3.6,75,0.00,,,0.00,WUHU216HW,2013-03-11 04:49:00,
2013-03-11 01:04:00,34.4,27.6,30.38,NW,304,1.4,3.4,76,0.00,,,0.00,WUHU216HW,2013-03-11 05:04:00,
2013-03-11 01:19:00,34.4,27.6,30.37,WNW,302,1.3,3.1,76,0.00,,,0.00,WUHU216HW,2013-03-11 05:19:00,
2013-03-11 01:34:00,34.4,27.6,30.37,NW,311,1.2,3.6,76,0.00,,,0.00,WUHU216HW,2013-03-11 05:34:00,
2013-03-11 01:50:00,34.4,28.2,30.36,NW,307,2.5,4.7,78,0.00,,,0.00,WUHU216HW,2013-03-11 05:50:00,
2013-03-11 02:05:00,34.4,27.8,30.36,SW,230,0.6,1.6,77,0.00,,,0.00,WUHU216HW,2013-03-11 06:05:00,
2013-03-11 02:20:00,34.4,28.2,30.35,WNW,297,1.7,3.1,78,0.00,,,0.00,WUHU216HW,2013-03-11 06:20:00,
2013-03-11 02:35:00,34.6,28.4,30.34,WNW,287,1.5,3.6,78,0.00,,,0.00,WUHU216HW,2013-03-11 06:35:00,
2013-03-11 02:50:00,34.7,28.5,30.34,West,263,1.2,4.0,78,0.00,,,0.00,WUHU216HW,2013-03-11 06:50:00,
2013-03-11 03:05:00,34.6,28.4,30.33,West,272,0.3,0.4,78,0.00,,,0.00,WUHU216HW,2013-03-11 07:05:00,
2013-03-11 03:20:00,34.4,27.8,30.33,SW,231,0.4,0.9,77,0.00,,,0.00,WUHU216HW,2013-03-11 07:20:00,
2013-03-11 03:35:00,34.2,28.0,30.31,North,0,0.0,0.0,78,0.00,,,0.00,WUHU216HW,2013-03-11 07:35:00,
2013-03-11 03:50:00,34.2,28.3,30.31,NW,306,1.3,2.5,79,0.00,,,0.00,WUHU216HW,2013-03-11 07:50:00,
2013-03-11 04:05:00,34.0,28.1,30.32,West,281,0.9,1.6,79,0.00,,,0.00,WUHU216HW,2013-03-11 08:05:00,
2013-03-11 04:20:00,33.8,27.9,30.30,NW,314,0.6,1.1,79,0.00,,,0.00,WUHU216HW,2013-03-11 08:20:00,
2013-03-11 04:35:00,33.7,27.8,30.30,North,0,0.3,0.4,79,0.00,,,0.00,WUHU216HW,2013-03-11 08:35:00,
2013-03-11 04:50:00,33.5,27.9,30.30,WNW,292,0.8,2.0,80,0.00,,,0.00,WUHU216HW,2013-03-11 08:50:00,
2013-03-11 05:05:00,33.3,27.8,30.29,WNW,303,0.7,1.3,80,0.00,,,0.00,WUHU216HW,2013-03-11 09:05:00,
2013-03-11 05:20:00,33.1,27.9,30.29,East,80,0.7,1.8,81,0.00,,,0.00,WUHU216HW,2013-03-11 09:20:00,
2013-03-11 05:35:00,32.8,27.5,30.29,NNE,23,0.4,0.4,81,0.00,,,0.00,WUHU216HW,2013-03-11 09:35:00,
2013-03-11 05:50:00,32.6,27.5,30.29,North,0,0.0,0.0,81,0.00,,,0.00,WUHU216HW,2013-03-11 09:50:00,
2013-03-11 06:05:00,32.8,27.5,30.29,North,0,0.0,0.0,81,0.00,,,0.00,WUHU216HW,2013-03-11 10:05:00,
2013-03-11 06:20:00,32.6,27.5,30.29,North,0,0.0,0.0,81,0.00,,,0.00,WUHU216HW,2013-03-11 10:20:00,
2013-03-11 06:35:00,32.6,27.5,30.29,NW,316,0.4,0.9,81,0.00,,,0.00,WUHU216HW,2013-03-11 10:35:00,
2013-03-11 06:50:00,32.6,27.5,30.30,North,0,0.0,0.0,81,0.00,,,0.00,WUHU216HW,2013-03-11 10:50:00,
2013-03-11 07:05:00,32.6,27.5,30.30,North,0,0.0,0.0,81,0.00,,,0.00,WUHU216HW,2013-03-11 11:05:00,
2013-03-11 07:20:00,32.8,27.9,30.28,NW,315,0.4,0.7,82,0.00,,,0.00,WUHU216HW,2013-03-11 11:20:00,
2013-03-11 07:35:00,32.8,28.2,30.30,NW,315,0.7,1.1,83,0.00,,,0.00,WUHU216HW,2013-03-11 11:35:00,
2013-03-11 07:50:00,32.9,28.4,30.30,ESE,113,0.5,0.7,83,0.00,,,0.00,WUHU216HW,2013-03-11 11:50:00,
2013-03-11 08:05:00,33.1,28.4,30.30,WNW,296,0.9,1.6,83,0.00,,,0.00,WUHU216HW,2013-03-11 12:05:00,
2013-03-11 08:20:00,34.0,29.6,30.30,SSE,153,0.4,0.7,84,0.00,,,0.00,WUHU216HW,2013-03-11 12:20:00,
2013-03-11 08:35:00,35.3,30.2,30.30,SSE,161,0.4,1.1,82,0.00,,,0.00,WUHU216HW,2013-03-11 12:35:00,
2013-03-11 08:50:00,35.6,30.3,30.30,South,186,0.9,1.8,81,0.00,,,0.00,WUHU216HW,2013-03-11 12:50:00,
2013-03-11 09:05:00,37.4,31.9,30.31,SE,128,0.5,1.1,80,0.00,,,0.00,WUHU216HW,2013-03-11 13:05:00,
2013-03-11 09:20:00,39.1,32.8,30.30,South,185,1.2,2.7,78,0.00,,,0.00,WUHU216HW,2013-03-11 13:20:00,
2013-03-11 09:35:00,40.0,33.3,30.30,SW,235,1.4,3.6,77,0.00,,,0.00,WUHU216HW,2013-03-11 13:35:00,
2013-03-11 09:50:00,40.3,33.3,30.31,West,279,1.6,3.8,76,0.00,,,0.00,WUHU216HW,2013-03-11 13:50:00,
2013-03-11 10:05:00,41.4,33.7,30.31,WSW,245,1.9,3.8,74,0.00,,,0.00,WUHU216HW,2013-03-11 14:05:00,
2013-03-11 10:20:00,42.5,34.1,30.31,WSW,246,1.9,4.0,72,0.00,,,0.00,WUHU216HW,2013-03-11 14:20:00,
2013-03-11 10:35:00,43.9,35.2,30.31,WSW,240,2.1,4.7,71,0.00,,,0.00,WUHU216HW,2013-03-11 14:35:00,
2013-03-11 10:50:00,44.3,35.1,30.31,WSW,244,1.9,4.7,70,0.00,,,0.00,WUHU216HW,2013-03-11 14:50:00,
2013-03-11 11:05:00,45.0,35.1,30.31,WSW,245,2.1,4.9,68,0.00,,,0.00,WUHU216HW,2013-03-11 15:05:00,
2013-03-11 11:20:00,46.4,35.6,30.31,SSW,195,2.1,4.5,66,0.00,,,0.00,WUHU216HW,2013-03-11 15:20:00,
2013-03-11 11:35:00,47.0,35.8,30.30,SSW,197,1.3,4.3,65,0.00,,,0.00,WUHU216HW,2013-03-11 15:35:00,
2013-03-11 11:50:00,46.3,35.1,30.29,West,270,0.9,2.2,65,0.00,,,0.00,WUHU216HW,2013-03-11 15:50:00,
2013-03-11 12:05:00,46.4,34.9,30.28,NW,308,1.9,4.7,64,0.00,,,0.00,WUHU216HW,2013-03-11 16:05:00,
2013-03-11 12:20:00,47.9,35.5,30.29,WNW,289,2.1,4.7,62,0.00,,,0.00,WUHU216HW,2013-03-11 16:20:00,
2013-03-11 12:35:00,47.9,35.5,30.29,SW,234,1.5,3.8,62,0.00,,,0.00,WUHU216HW,2013-03-11 16:35:00,
2013-03-11 12:50:00,48.6,35.8,30.28,SSW,208,1.9,4.7,61,0.00,,,0.00,WUHU216HW,2013-03-11 16:50:00,
2013-03-11 13:05:00,49.0,35.7,30.27,WSW,250,1.6,4.3,60,0.00,,,0.00,WUHU216HW,2013-03-11 17:05:00,
2013-03-11 13:20:00,49.3,35.2,30.28,SSW,208,2.1,7.4,58,0.00,,,0.00,WUHU216HW,2013-03-11 17:20:00,
2013-03-11 13:35:00,50.0,34.9,30.27,South,190,1.8,7.4,56,0.00,,,0.00,WUHU216HW,2013-03-11 17:35:00,
2013-03-11 13:50:00,51.5,35.3,30.27,SSW,211,2.5,4.7,54,0.00,,,0.00,WUHU216HW,2013-03-11 17:50:00,
2013-03-11 14:05:00,52.4,34.7,30.26,South,189,2.7,7.6,51,0.00,,,0.00,WUHU216HW,2013-03-11 18:05:00,
2013-03-11 14:20:00,52.2,33.6,30.26,SW,220,2.4,5.4,49,0.00,,,0.00,WUHU216HW,2013-03-11 18:20:00,
2013-03-11 14:35:00,52.0,32.9,30.25,SW,231,2.4,5.8,48,0.00,,,0.00,WUHU216HW,2013-03-11 18:35:00,
2013-03-11 14:50:00,52.0,32.3,30.25,SSW,196,2.8,5.4,47,0.00,,,0.00,WUHU216HW,2013-03-11 18:50:00,
2013-03-11 15:05:00,51.7,32.6,30.25,SW,216,2.6,6.0,48,0.00,,,0.00,WUHU216HW,2013-03-11 19:05:00,
2013-03-11 15:20:00,51.1,32.0,30.24,SW,219,2.7,5.4,48,0.00,,,0.00,WUHU216HW,2013-03-11 19:20:00,
2013-03-11 15:35:00,50.8,31.8,30.24,SW,215,2.4,5.6,48,0.00,,,0.00,WUHU216HW,2013-03-11 19:35:00,
2013-03-11 15:50:00,50.6,31.6,30.24,South,182,1.9,4.0,48,0.00,,,0.00,WUHU216HW,2013-03-11 19:50:00,
2013-03-11 16:05:00,50.4,31.4,30.24,SW,218,1.8,4.3,48,0.00,,,0.00,WUHU216HW,2013-03-11 20:05:00,
2013-03-11 16:20:00,49.9,31.5,30.23,WSW,247,1.9,4.7,49,0.00,,,0.00,WUHU216HW,2013-03-11 20:20:00,
2013-03-11 16:35:00,49.3,31.5,30.23,WSW,249,1.5,4.3,50,0.00,,,0.00,WUHU216HW,2013-03-11 20:35:00,
2013-03-11 16:50:00,48.8,31.0,30.23,SW,227,2.2,7.2,50,0.00,,,0.00,WUHU216HW,2013-03-11 20:50:00,
2013-03-11 17:05:00,48.6,30.8,30.23,West,260,1.6,4.7,50,0.00,,,0.00,WUHU216HW,2013-03-11 21:05:00,
2013-03-11 17:20:00,48.1,31.2,30.23,WSW,250,1.7,4.3,52,0.00,,,0.00,WUHU216HW,2013-03-11 21:20:00,
2013-03-11 17:35:00,47.2,30.8,30.23,WNW,295,2.1,4.5,53,0.00,,,0.00,WUHU216HW,2013-03-11 21:35:00,
2013-03-11 17:50:00,46.3,30.9,30.23,WNW,283,1.9,4.3,55,0.00,,,0.00,WUHU216HW,2013-03-11 21:50:00,
2013-03-11 18:05:00,45.5,31.1,30.23,NW,305,1.4,4.0,57,0.00,,,0.00,WUHU216HW,2013-03-11 22:05:00,
2013-03-11 18:20:00,45.0,30.7,30.23,WNW,296,1.2,3.4,57,0.00,,,0.00,WUHU216HW,2013-03-11 22:20:00,
2013-03-11 18:35:00,44.3,30.4,30.23,WNW,302,1.8,4.0,58,0.00,,,0.00,WUHU216HW,2013-03-11 22:35:00,
2013-03-11 18:50:00,43.4,30.8,30.23,NW,309,1.6,3.4,61,0.00,,,0.00,WUHU216HW,2013-03-11 22:50:00,
2013-03-11 19:05:00,42.7,30.5,30.23,WNW,300,2.0,4.5,62,0.00,,,0.00,WUHU216HW,2013-03-11 23:05:00,
2013-03-11 19:20:00,42.5,30.7,30.23,WNW,298,1.4,3.4,63,0.00,,,0.00,WUHU216HW,2013-03-11 23:20:00,
2013-03-11 19:35:00,42.1,30.4,30.23,WNW,290,1.8,3.4,63,0.00,,,0.00,WUHU216HW,2013-03-11 23:35:00,
2013-03-11 19:50:00,41.6,30.7,30.23,NW,310,2.3,4.9,65,0.00,,,0.00,WUHU216HW,2013-03-11 23:50:00,
2013-03-11 20:05:00,40.9,30.7,30.24,WNW,300,2.3,6.0,67,0.00,,,0.00,WUHU216HW,2013-03-12 00:05:00,
2013-03-11 20:20:00,41.6,31.1,30.23,WNW,293,2.3,5.4,66,0.00,,,0.00,WUHU216HW,2013-03-12 00:20:00,
2013-03-11 20:35:00,41.4,30.9,30.23,WNW,303,2.5,6.9,66,0.00,,,0.00,WUHU216HW,2013-03-12 00:35:00,
2013-03-11 20:50:00,40.9,30.7,30.22,NW,308,2.1,4.0,67,0.00,,,0.00,WUHU216HW,2013-03-12 00:50:00,
2013-03-11 21:05:00,40.5,30.3,30.23,WNW,303,1.1,3.4,67,0.00,,,0.00,WUHU216HW,2013-03-12 01:05:00,
2013-03-11 21:20:00,40.0,30.3,30.22,WNW,302,1.9,4.3,68,0.00,,,0.00,WUHU216HW,2013-03-12 01:20:00,
2013-03-11 21:35:00,40.3,30.6,30.23,WNW,292,1.5,4.0,68,0.00,,,0.00,WUHU216HW,2013-03-12 01:35:00,
2013-03-11 21:50:00,40.0,30.3,30.22,WNW,297,1.7,4.0,68,0.00,,,0.00,WUHU216HW,2013-03-12 01:50:00,
2013-03-11 22:05:00,39.6,30.3,30.22,WNW,293,1.5,3.8,69,0.00,,,0.00,WUHU216HW,2013-03-12 02:05:00,
2013-03-11 22:20:00,39.2,30.2,30.22,WNW,286,1.3,4.5,70,0.00,,,0.00,WUHU216HW,2013-03-12 02:20:00,
2013-03-11 22:35:00,38.9,30.2,30.22,WNW,299,1.3,2.7,71,0.00,,,0.00,WUHU216HW,2013-03-12 02:35:00,
2013-03-11 22:50:00,40.0,31.0,30.22,WNW,284,1.7,4.0,70,0.00,,,0.00,WUHU216HW,2013-03-12 02:50:00,
2013-03-11 23:05:00,39.6,30.6,30.21,WNW,303,1.1,2.5,70,0.00,,,0.00,WUHU216HW,2013-03-12 03:05:00,
2013-03-11 23:20:00,38.5,30.0,30.21,NNW,333,0.5,1.1,71,0.00,,,0.00,WUHU216HW,2013-03-12 03:20:00,
2013-03-11 23:35:00,38.5,31.0,30.21,WNW,293,1.7,4.7,74,0.00,,,0.00,WUHU216HW,2013-03-12 03:35:00,
2013-03-11 23:50:00,39.8,32.1,30.20,WNW,298,2.1,4.9,74,0.00,,,0.00,WUHU216HW,2013-03-12 03:50:00,